Location: Camaret
(48.2753°N, 4.5961°W)
Time: 01:13:33
(UTC+00:00)

Cosmos 2315 Rocket - Pass Details

Date: 29 October 2020
Orbit: 967 x 1002 km, 82.9° (Epoch: 26 November)

Event Time Altitude Azimuth Distance (km) Brightness Sun altitude
Rises 19:02:14 0° 172° (S) 3,650 6.9 -20.2°
Reaches altitude 10° 19:04:46 10° 169° (SSE) 2,704 6.2 -20.6°
Maximum altitude 19:10:47 57° 92° (E) 1,135 4.0 -21.6°
Drops below altitude 10° 19:16:50 10° 16° (NNE) 2,719 6.2 -22.7°
Sets 19:19:23 0° 13° (NNE) 3,672 6.9 -23.1°
